NOAA 16 DEB, 41207

Orbit data source: Space-Track

NOAA 16 DEB, 41207 is space debris in SSO originally from a launch on Thu, 21 Sep 2000 UTC launched from the Air Force Western Test Range (AFWTR). Debris objects in space refer to the collection of defunct objects orbiting the Earth. Examples of debris include non-operational satellites, rocket bodies, and fragments generated from explosions, collisions, or faulty payload assembly.

Loading next visibility...
Identifier
41207, 2000-055DL
Orbit
SSO
Country
Flag of USUS
Related business
Manufacturer
Unknown
Mission
Spacecraft
Bus & Motor
Unknown
Mass
Unknown
Launch date (UTC)
2000-09-21 (25 years ago)
Launch vehicle
Unknown
Launch site
Air Force Western Test Range (AFWTR)
Object type
Payload
Rocket body
Debris
Shape & HBR
Unknown shape, 0.1 m
Radar Cross Section
Small (<0.1 m²)

Expand to show TLE details & history
Last TLE update: 1 day ago

TLE from 1 day ago
0 NOAA 16 DEB
1 41207U 00055DL  25351.15205482  .00015460  00000-0  23551-2 0  9991
2 41207  98.9137 232.8174 0036251 106.3564 254.1632 14.73575351525604
Epoch: 2025-12-17T03:38Z
TLE epoch observation values (Epoch: 2025-12-17T03:38:57.536Z)
Latitude
-0.00002°
Longitude
92.05165°
Altitude
659.697 km
Speed
7.524 km/s
True Right ascension
15h 31m 16s
True Declination
0° 00' 00"
Sunlit
Object was in daylight at epoch
Visualization orbit readout
Latitude
Unknown
Longitude
Unknown
Altitude
Unknown
Speed
Unknown
Apparent Right ascension
Unknown
Apparent Declination
Unknown
Sunlit
N/A
Visualization observer readout
Local Sidereal Time
05:21:20
Azimuth
Unknown
Elevation
Unknown
Doppler factor
Unknown
Orbital elements
Apogee altitude
672.241 km
Perigee altitude
621.309 km
Semi-major axis
7,024.912 km
Eccentricity
0.00363
Inclination
98.9137°
RAAN
232.8174°
Arg. of periapsis
106.3564°
True anomaly
253.76406°
Mean anomaly
254.1632°
Eccentric anomaly
253.96358°
Mean motion
3.68623 °/min
Orbital period
97.66 mins
BSTAR
0.0023551
Loading maneuver chart data...
Computing Atmospheric mass density...
Loading historical data...
Loading historical data...
Loading historical data...
Loading historical data...
Loading historical data...
Loading historical data...
Loading historical data...

Documentation

Showing up to 5 results
|